TimeEST,TemperatureF,Dew PointF,Humidity,Sea Level PressureIn,VisibilityMPH,Wind Direction,Wind SpeedMPH,Gust SpeedMPH,PrecipitationIn,Events,Conditions,WindDirDegrees,DateUTC
12:53 AM,50.0,48.0,93,29.79,10.0,NNW,3.5,-,N/A,,Overcast,340,2012-12-17 05:53:00
1:53 AM,48.0,46.9,96,29.78,4.0,Calm,Calm,-,N/A,,Overcast,0,2012-12-17 06:53:00
2:10 AM,48.2,46.4,93,29.81,1.5,Calm,Calm,-,N/A,,Overcast,0,2012-12-17 07:10:00
2:12 AM,46.4,46.4,100,29.81,0.8,Calm,Calm,-,N/A,,Overcast,0,2012-12-17 07:12:00
2:22 AM,46.4,46.4,100,29.81,0.2,Calm,Calm,-,N/A,Fog,Fog,0,2012-12-17 07:22:00
2:53 AM,48.0,46.9,96,29.78,2.0,Calm,Calm,-,N/A,,Overcast,0,2012-12-17 07:53:00
3:50 AM,46.4,44.6,93,29.81,1.2,Calm,Calm,-,N/A,,Overcast,0,2012-12-17 08:50:00
3:53 AM,45.0,45.0,100,29.78,0.8,Calm,Calm,-,N/A,,Overcast,0,2012-12-17 08:53:00
4:00 AM,44.6,44.6,100,29.81,0.5,Calm,Calm,-,N/A,Fog,Fog,0,2012-12-17 09:00:00
4:19 AM,44.6,44.6,100,29.81,0.5,Calm,Calm,-,N/A,Fog,Fog,0,2012-12-17 09:19:00
4:53 AM,45.0,44.1,97,29.77,0.5,Calm,Calm,-,N/A,Fog,Fog,0,2012-12-17 09:53:00
5:40 AM,44.6,42.8,93,29.82,0.2,Calm,Calm,-,N/A,Fog,Fog,0,2012-12-17 10:40:00
5:53 AM,43.0,43.0,100,29.79,0.2,Calm,Calm,-,N/A,Fog,Fog,0,2012-12-17 10:53:00
6:07 AM,44.6,42.8,93,29.83,0.5,Calm,Calm,-,N/A,Fog,Fog,0,2012-12-17 11:07:00
6:29 AM,44.6,42.8,93,29.82,0.2,Calm,Calm,-,N/A,Fog,Fog,0,2012-12-17 11:29:00
6:53 AM,44.1,44.1,100,29.80,0.1,Calm,Calm,-,N/A,Fog,Fog,0,2012-12-17 11:53:00
7:53 AM,45.0,44.1,97,29.81,0.1,Calm,Calm,-,N/A,Fog,Fog,0,2012-12-17 12:53:00
8:53 AM,45.0,45.0,100,29.79,0.1,Calm,Calm,-,N/A,Fog,Fog,0,2012-12-17 13:53:00
9:40 AM,46.4,46.4,100,29.82,0.5,Calm,Calm,-,N/A,Fog,Fog,0,2012-12-17 14:40:00
9:53 AM,46.9,46.0,97,29.77,0.8,East,3.5,-,N/A,,Overcast,90,2012-12-17 14:53:00
10:37 AM,46.4,46.4,100,29.78,1.5,ESE,3.5,-,N/A,,Overcast,110,2012-12-17 15:37:00
10:53 AM,48.0,46.9,96,29.73,2.0,Calm,Calm,-,N/A,,Overcast,0,2012-12-17 15:53:00
11:51 AM,50.0,48.2,94,29.74,4.0,Calm,Calm,-,N/A,,Mostly Cloudy,0,2012-12-17 16:51:00
11:53 AM,50.0,48.9,96,29.70,4.0,Calm,Calm,-,N/A,,Mostly Cloudy,0,2012-12-17 16:53:00
12:53 PM,53.1,50.0,89,29.66,10.0,Calm,Calm,-,N/A,,Overcast,0,2012-12-17 17:53:00
1:53 PM,54.0,50.0,86,29.63,10.0,Calm,Calm,-,N/A,,Overcast,0,2012-12-17 18:53:00
2:53 PM,54.0,50.0,86,29.62,10.0,WSW,3.5,-,N/A,,Overcast,250,2012-12-17 19:53:00
3:53 PM,54.0,50.0,86,29.60,10.0,West,3.5,-,N/A,,Overcast,280,2012-12-17 20:53:00
4:53 PM,53.1,50.0,89,29.59,10.0,Calm,Calm,-,N/A,,Overcast,0,2012-12-17 21:53:00
7:53 PM,54.0,50.0,86,29.63,10.0,WSW,12.7,-,N/A,,Mostly Cloudy,250,2012-12-18 00:53:00
8:11 PM,53.6,50.0,88,29.66,10.0,WSW,6.9,-,N/A,,Mostly Cloudy,250,2012-12-18 01:11:00
8:31 PM,51.8,50.0,94,29.66,10.0,SW,6.9,-,N/A,,Mostly Cloudy,220,2012-12-18 01:31:00
8:53 PM,48.9,44.1,83,29.66,6.0,WNW,16.1,29.9,0.07,Rain,Light Rain,300,2012-12-18 01:53:00
9:53 PM,46.9,44.1,90,29.65,7.0,WNW,4.6,-,0.05,Rain,Light Rain,290,2012-12-18 02:53:00
10:53 PM,46.9,45.0,93,29.67,10.0,Calm,Calm,-,0.01,Rain,Light Rain,0,2012-12-18 03:53:00
11:53 PM,46.9,44.1,90,29.67,10.0,Calm,Calm,-,0.00,Rain,Light Rain,0,2012-12-18 04:53:00